Location: Easthampton
(42.2676°N, 72.6690°W)
Time: 05:46:02
(UTC+00:00)

N. Korean satellite - Pass Details

Date: 07 December 2022
Orbit: 407 x 444 km, 97.3° (Epoch: 28 January)

Event Time Altitude Azimuth Distance (km) Brightness Sun altitude
Rises 10:53:57 0° 359° (N) 2,500 10.0 -12.9°
Reaches altitude 10° 10:56:17 10° 345° (NNW) 1,612 8.9 -12.5°
Maximum altitude 10:59:05 24° 290° (WNW) 1,001 7.5 -12.0°
Drops below altitude 10° 11:01:51 10° 236° (SW) 1,578 8.8 -11.5°
Sets 11:04:06 0° 221° (SW) 2,433 9.9 -11.2°
